When you browse on this site, cookies collect data to enhance your experience and personalize the content and advertising you see.
Visit our Privacy Policy to learn more. By continuing to use the site, you agree to this use of cookies and data.
  • In Romania
  • List of Countries
  • For 7 days
  • Water Temperature
  • Weather Map
  • Weather Widgets
  • user-avatar
    Login

    Hourly Weather Sopron

    Today, 23 February, Sunday

    Time Temperature Precipitation Wind Pressure Humidity
    00:00 +8°C° 0 mm 2 mps 751 mmHg 52%
    01:00 +8°C° 0 mm 2 mps 751 mmHg 50%
    02:00 +8°C° 0 mm 3 mps 751 mmHg 53%
    03:00 +7°C° 0 mm 4 mps 751 mmHg 56%
    04:00 +8°C° 0 mm 5 mps 751 mmHg 58%
    05:00 +8°C° 0 mm 4 mps 751 mmHg 61%
    06:00 +7°C° 0 mm 4 mps 751 mmHg 64%
    07:00 +8°C° 0 mm 3 mps 750 mmHg 66%
    08:00 +9°C° 0 mm 3 mps 750 mmHg 64%
    09:00 +9°C° 0 mm 3 mps 750 mmHg 62%
    10:00 +10°C° 0 mm 4 mps 749 mmHg 60%
    11:00 +10°C° 0 mm 3 mps 749 mmHg 59%
    12:00 +10°C° 0 mm 3 mps 749 mmHg 58%
    13:00 +12°C° 0 mm 2 mps 748 mmHg 57%
    14:00 +10°C° 0 mm 2 mps 747 mmHg 60%
    15:00 +10°C° 0 mm 3 mps 746 mmHg 63%
    16:00 +9°C° 0 mm 3 mps 745 mmHg 65%
    17:00 +9°C° 0 mm 3 mps 745 mmHg 65%
    18:00 +9°C° 0 mm 3 mps 745 mmHg 64%
    19:00 +10°C° 0 mm 3 mps 744 mmHg 64%
    20:00 +10°C° 0 mm 3 mps 744 mmHg 64%
    21:00 +10°C° 0 mm 4 mps 743 mmHg 65%
    22:00 +11°C° 0 mm 4 mps 743 mmHg 65%
    23:00 +11°C° 0 mm 4 mps 743 mmHg 65%

    Tomorrow, 24 February, Monday

    Time Temperature Precipitation Wind Pressure Humidity
    00:00 +10°C° 0 mm 5 mps 743 mmHg 65%
    01:00 +10°C° 0 mm 5 mps 743 mmHg 65%
    02:00 +10°C° 0.4 mm 6 mps 744 mmHg 67%
    03:00 +9°C° 0.4 mm 7 mps 744 mmHg 70%
    04:00 +7°C° 0.4 mm 8 mps 745 mmHg 72%
    05:00 +6°C° 0.2 mm 7 mps 746 mmHg 66%
    06:00 +5°C° 0.2 mm 6 mps 748 mmHg 59%
    07:00 +5°C° 0.2 mm 5 mps 749 mmHg 53%
    08:00 +6°C° 0 mm 5 mps 750 mmHg 51%
    09:00 +6°C° 0 mm 5 mps 750 mmHg 49%
    10:00 +7°C° 0 mm 6 mps 750 mmHg 47%
    11:00 +8°C° 0 mm 5 mps 750 mmHg 45%
    12:00 +8°C° 0 mm 4 mps 750 mmHg 43%
    13:00 +10°C° 0 mm 4 mps 750 mmHg 41%
    14:00 +10°C° 0 mm 4 mps 750 mmHg 47%
    15:00 +10°C° 0 mm 3 mps 749 mmHg 53%
    16:00 +9°C° 0 mm 3 mps 749 mmHg 59%
    17:00 +9°C° 0 mm 3 mps 748 mmHg 63%
    18:00 +7°C° 0 mm 4 mps 747 mmHg 66%
    19:00 +7°C° 0 mm 4 mps 747 mmHg 70%
    20:00 +6°C° 0 mm 4 mps 746 mmHg 71%
    21:00 +6°C° 0 mm 5 mps 746 mmHg 73%
    22:00 +5°C° 0 mm 5 mps 745 mmHg 74%
    23:00 +5°C° 0 mm 5 mps 745 mmHg 76%

    Day after tomorrow, 25 February, Tuesday

    Time Temperature Precipitation Wind Pressure Humidity
    00:00 +5°C° 0 mm 4 mps 744 mmHg 77%
    01:00 +5°C° 0 mm 4 mps 744 mmHg 79%
    02:00 +5°C° 0 mm 4 mps 743 mmHg 79%
    03:00 +4°C° 0 mm 4 mps 742 mmHg 80%
    04:00 +4°C° 0 mm 3 mps 742 mmHg 81%
    05:00 +4°C° 0 mm 3 mps 742 mmHg 82%
    06:00 +5°C° 0 mm 2 mps 741 mmHg 82%
    07:00 +5°C° 0 mm 2 mps 741 mmHg 83%
    08:00 +7°C° 0 mm 2 mps 741 mmHg 77%
    09:00 +8°C° 0 mm 2 mps 740 mmHg 71%
    10:00 +10°C° 0 mm 2 mps 740 mmHg 66%
    11:00 +12°C° 0 mm 2 mps 739 mmHg 63%
    12:00 +13°C° 0 mm 2 mps 739 mmHg 59%
    13:00 +13°C° 0 mm 3 mps 738 mmHg 56%
    14:00 +13°C° 0 mm 3 mps 738 mmHg 59%
    15:00 +12°C° 0 mm 3 mps 737 mmHg 61%
    16:00 +12°C° 0 mm 3 mps 736 mmHg 64%
    17:00 +12°C° 0 mm 2 mps 736 mmHg 68%
    18:00 +10°C° 0 mm 2 mps 736 mmHg 73%
    19:00 +10°C° 0 mm 1 mps 736 mmHg 78%
    20:00 +10°C° 0 mm 1 mps 736 mmHg 78%
    21:00 +10°C° 0 mm 1 mps 735 mmHg 78%
    22:00 +10°C° 0 mm 1 mps 735 mmHg 78%
    23:00 +8°C° 0.3 mm 2 mps 735 mmHg 79%

    26 February, Wednesday

    Time Temperature Precipitation Wind Pressure Humidity
    00:00 +8°C° 0.3 mm 3 mps 734 mmHg 81%
    01:00 +7°C° 0.3 mm 5 mps 734 mmHg 82%
    02:00 +6°C° 1.6 mm 4 mps 733 mmHg 84%
    03:00 +7°C° 1.6 mm 3 mps 733 mmHg 86%
    04:00 +7°C° 1.6 mm 3 mps 732 mmHg 89%
    05:00 +5°C° 0.3 mm 3 mps 732 mmHg 86%
    06:00 +5°C° 0.3 mm 3 mps 732 mmHg 84%
    07:00 +6°C° 0.3 mm 2 mps 731 mmHg 82%
    08:00 +5°C° 0.1 mm 3 mps 731 mmHg 76%
    09:00 +7°C° 0.1 mm 3 mps 731 mmHg 69%
    10:00 +6°C° 0.1 mm 4 mps 731 mmHg 63%
    11:00 +7°C° 0 mm 4 mps 731 mmHg 62%
    12:00 +7°C° 0 mm 4 mps 731 mmHg 60%
    13:00 +7°C° 0 mm 4 mps 731 mmHg 59%
    14:00 +7°C° 0.2 mm 5 mps 731 mmHg 59%
    15:00 +5°C° 0.2 mm 6 mps 731 mmHg 59%
    16:00 +5°C° 0.2 mm 7 mps 731 mmHg 60%
    17:00 +4°C° 0 mm 7 mps 731 mmHg 61%
    18:00 +2°C° 0 mm 8 mps 732 mmHg 63%
    19:00 +1°C° 0 mm 9 mps 732 mmHg 64%
    20:00 +1°C° 0 mm 9 mps 733 mmHg 63%
    21:00 +1°C° 0 mm 8 mps 734 mmHg 63%
    22:00 +1°C° 0 mm 8 mps 734 mmHg 63%
    23:00 0°C° 0 mm 8 mps 735 mmHg 62%

    27 February, Thursday

    Time Temperature Precipitation Wind Pressure Humidity
    00:00 0°C° 0 mm 8 mps 735 mmHg 61%
    01:00 0°C° 0 mm 8 mps 736 mmHg 61%
    02:00 0°C° 0 mm 8 mps 736 mmHg 63%
    03:00 0°C° 0 mm 8 mps 737 mmHg 65%
    04:00 -1°C° 0 mm 8 mps 737 mmHg 67%
    05:00 -1°C° 0 mm 8 mps 738 mmHg 69%
    06:00 -1°C° 0 mm 7 mps 738 mmHg 70%
    07:00 -1°C° 0 mm 7 mps 739 mmHg 72%
    08:00 0°C° 0 mm 7 mps 740 mmHg 66%
    09:00 +1°C° 0 mm 8 mps 741 mmHg 60%
    10:00 +2°C° 0 mm 8 mps 742 mmHg 54%
    11:00 +3°C° 0 mm 9 mps 742 mmHg 53%
    12:00 +3°C° 0 mm 9 mps 742 mmHg 51%
    13:00 +3°C° 0 mm 9 mps 742 mmHg 50%
    14:00 +5°C° 0 mm 8 mps 742 mmHg 48%
    15:00 +5°C° 0 mm 8 mps 742 mmHg 47%
    16:00 +5°C° 0 mm 7 mps 742 mmHg 45%
    17:00 +4°C° 0 mm 6 mps 743 mmHg 51%
    18:00 +2°C° 0 mm 5 mps 743 mmHg 56%
    19:00 +1°C° 0 mm 4 mps 744 mmHg 62%
    20:00 +2°C° 0 mm 3 mps 744 mmHg 64%
    21:00 +2°C° 0 mm 3 mps 744 mmHg 65%
    22:00 +2°C° 0 mm 2 mps 744 mmHg 67%
    23:00 +2°C° 0 mm 2 mps 744 mmHg 67%

    28 February, Friday

    Time Temperature Precipitation Wind Pressure Humidity
    00:00 +2°C° 0 mm 2 mps 743 mmHg 66%
    01:00 +2°C° 0 mm 2 mps 743 mmHg 66%
    02:00 +2°C° 0 mm 2 mps 743 mmHg 66%
    03:00 +1°C° 0 mm 3 mps 743 mmHg 66%
    04:00 +1°C° 0 mm 3 mps 743 mmHg 66%
    05:00 +2°C° 0 mm 2 mps 743 mmHg 67%
    06:00 +2°C° 0 mm 2 mps 743 mmHg 69%
    07:00 +2°C° 0 mm 2 mps 743 mmHg 71%
    08:00 +4°C° 0 mm 2 mps 743 mmHg 68%
    09:00 +5°C° 0 mm 2 mps 743 mmHg 64%
    10:00 +6°C° 0 mm 2 mps 743 mmHg 61%
    11:00 +8°C° 0 mm 3 mps 743 mmHg 59%
    12:00 +10°C° 0 mm 3 mps 743 mmHg 57%
    13:00 +11°C° 0 mm 3 mps 743 mmHg 55%
    14:00 +11°C° 0 mm 3 mps 743 mmHg 54%
    15:00 +11°C° 0 mm 3 mps 743 mmHg 54%
    16:00 +11°C° 0 mm 3 mps 743 mmHg 54%
    17:00 +10°C° 0 mm 3 mps 743 mmHg 58%
    18:00 +8°C° 0 mm 3 mps 743 mmHg 62%
    19:00 +7°C° 0 mm 3 mps 743 mmHg 67%
    20:00 +7°C° 0 mm 3 mps 743 mmHg 68%
    21:00 +5°C° 0 mm 3 mps 742 mmHg 69%
    22:00 +5°C° 0 mm 4 mps 742 mmHg 71%
    23:00 +5°C° 0 mm 4 mps 742 mmHg 71%
    Show more